| Date | Time | Temp. (oF) | Dew Point (oF) | Rel. Hum. (%) | Press. (in.) | Wind Dir. | Wind Speed (mph) | Hourly Rainfall (in.) |
|
|---|---|---|---|---|---|---|---|---|---|
| 1 | 01/29 | 00:00 | 24 | 16 | 73 | 30.16 | NE | 1 | 0.00 |
| 2 | 01/28 | 23:00 | 24 | 15 | 70 | 30.16 | NE | 3 | 0.00 |
| 3 | 01/28 | 22:00 | 24 | 14 | 67 | 30.18 | E | 3 | 0.00 |
| 4 | 01/28 | 21:00 | 24 | 12 | 60 | 30.20 | SSE | 1 | 0.00 |
| 5 | 01/28 | 20:00 | 24 | 10 | 57 | 30.20 | SE | 5 | 0.00 |
| 6 | 01/28 | 19:00 | 24 | 10 | 56 | 30.21 | S | 5 | 0.00 |
| 7 | 01/28 | 18:00 | 24 | 10 | 55 | 30.22 | S | 2 | 0.00 |
| 8 | 01/28 | 17:00 | 24 | 9 | 53 | 30.21 | SE | 2 | 0.00 |
| 9 | 01/28 | 16:00 | 25 | 10 | 53 | 30.21 | SSE | 2 | 0.00 |
| 10 | 01/28 | 15:00 | 23 | 8 | 53 | 30.21 | S | 4 | 0.00 |
| 11 | 01/28 | 14:00 | 21 | 6 | 53 | 30.22 | SSW | 5 | 0.00 |
| 12 | 01/28 | 13:00 | 20 | 5 | 54 | 30.25 | SSE | 7 | 0.00 |
| 13 | 01/28 | 12:00 | 19 | 5 | 56 | 30.28 | SSW | 8 | 0.00 |
| 14 | 01/28 | 11:00 | 17 | 5 | 59 | 30.32 | S | 8 | 0.00 |
| 15 | 01/28 | 10:00 | 15 | 4 | 62 | 30.34 | S | 6 | 0.00 |
| 16 | 01/28 | 09:00 | 13 | 4 | 68 | 30.35 | S | 4 | 0.00 |
| 17 | 01/28 | 08:00 | 12 | 5 | 73 | 30.36 | S | 4 | 0.00 |
| 18 | 01/28 | 07:00 | 10 | 5 | 82 | 30.37 | SSE | 1 | 0.00 |
| 19 | 01/28 | 06:00 | 9 | 5 | 84 | 30.38 | SSE | 2 | 0.00 |
| 20 | 01/28 | 05:00 | 8 | 5 | 88 | 30.40 | NNW | 2 | 0.00 |
| 21 | 01/28 | 04:00 | 7 | 4 | 88 | 30.41 | NE | 0 | 0.00 |
| 22 | 01/28 | 03:00 | 5 | 2 | 91 | 30.40 | SW | 2 | 0.00 |
| 23 | 01/28 | 02:00 | 3 | 0 | 91 | 30.41 | SSE | 0 | 0.00 |
| 24 | 01/28 | 01:00 | 2 | 0 | 89 | 30.42 | SE | 0 | 0.00 |